TimeEST,TemperatureF,Dew PointF,Humidity,Sea Level PressureIn,VisibilityMPH,Wind Direction,Wind SpeedMPH,Gust SpeedMPH,PrecipitationIn,Events,Conditions,WindDirDegrees,DateUTC
12:53 AM,54.0,46.0,75,30.27,10.0,Calm,Calm,-,N/A,,Clear,0,2013-01-25 05:53:00
1:53 AM,54.0,46.0,75,30.28,9.0,North,3.5,-,N/A,,Clear,10,2013-01-25 06:53:00
2:53 AM,54.0,46.9,77,30.27,10.0,Calm,Calm,-,N/A,,Clear,0,2013-01-25 07:53:00
3:53 AM,52.0,46.0,80,30.25,10.0,Calm,Calm,-,N/A,,Clear,0,2013-01-25 08:53:00
4:53 AM,48.9,45.0,86,30.25,10.0,Calm,Calm,-,N/A,,Clear,0,2013-01-25 09:53:00
5:53 AM,50.0,46.0,86,30.27,9.0,Calm,Calm,-,N/A,,Clear,0,2013-01-25 10:53:00
6:53 AM,51.1,46.9,86,30.28,8.0,Calm,Calm,-,N/A,,Clear,0,2013-01-25 11:53:00
7:53 AM,51.1,46.9,86,30.28,6.0,Calm,Calm,-,N/A,,Clear,0,2013-01-25 12:53:00
8:53 AM,59.0,50.0,72,30.30,9.0,NNE,4.6,-,N/A,,Clear,30,2013-01-25 13:53:00
9:53 AM,64.9,50.0,58,30.31,10.0,NE,4.6,-,N/A,,Clear,40,2013-01-25 14:53:00
10:53 AM,70.0,48.9,47,30.30,10.0,Variable,4.6,-,N/A,,Clear,0,2013-01-25 15:53:00
11:53 AM,73.0,48.0,41,30.28,10.0,ENE,4.6,-,N/A,,Clear,60,2013-01-25 16:53:00
12:53 PM,73.9,50.0,43,30.24,10.0,South,4.6,-,N/A,,Partly Cloudy,180,2013-01-25 17:53:00
1:53 PM,75.0,48.9,40,30.21,10.0,SSE,8.1,-,N/A,,Clear,160,2013-01-25 18:53:00
2:53 PM,75.9,46.9,36,30.19,10.0,ESE,8.1,-,N/A,,Partly Cloudy,120,2013-01-25 19:53:00
3:53 PM,77.0,48.0,36,30.19,10.0,East,3.5,-,N/A,,Scattered Clouds,100,2013-01-25 20:53:00
4:53 PM,75.9,46.0,35,30.19,10.0,Calm,Calm,-,N/A,,Clear,0,2013-01-25 21:53:00
5:53 PM,73.9,48.0,40,30.19,10.0,Calm,Calm,-,N/A,,Clear,0,2013-01-25 22:53:00
6:53 PM,68.0,48.0,49,30.21,10.0,Calm,Calm,-,N/A,,Clear,0,2013-01-25 23:53:00
7:53 PM,64.9,51.1,61,30.22,10.0,Calm,Calm,-,N/A,,Clear,0,2013-01-26 00:53:00
8:53 PM,63.0,48.9,60,30.22,10.0,Calm,Calm,-,N/A,,Clear,0,2013-01-26 01:53:00
9:53 PM,59.0,48.0,67,30.22,10.0,Calm,Calm,-,N/A,,Clear,0,2013-01-26 02:53:00
10:53 PM,57.9,48.9,72,30.24,10.0,Calm,Calm,-,N/A,,Clear,0,2013-01-26 03:53:00
11:53 PM,55.9,48.9,77,30.23,10.0,Calm,Calm,-,N/A,,Clear,0,2013-01-26 04:53:00